TimeCST,TemperatureF,Dew PointF,Humidity,Sea Level PressureIn,VisibilityMPH,Wind Direction,Wind SpeedMPH,Gust SpeedMPH,PrecipitationIn,Events,Conditions,WindDirDegrees,DateUTC
12:15 AM,46.4,32.0,57,29.85,10.0,West,19.6,-,N/A,,Clear,260,2013-11-09 06:15:00
12:35 AM,46.4,30.2,53,29.86,10.0,West,18.4,26.5,N/A,,Clear,260,2013-11-09 06:35:00
12:55 AM,46.4,30.2,53,29.86,10.0,West,19.6,24.2,N/A,,Clear,260,2013-11-09 06:55:00
1:15 AM,46.4,30.2,53,29.87,10.0,West,17.3,23.0,N/A,,Clear,260,2013-11-09 07:15:00
1:35 AM,44.6,30.2,57,29.88,10.0,West,19.6,-,N/A,,Clear,260,2013-11-09 07:35:00
1:55 AM,44.6,30.2,57,29.89,10.0,West,17.3,25.3,N/A,,Clear,260,2013-11-09 07:55:00
2:15 AM,44.6,30.2,57,29.89,10.0,West,18.4,21.9,N/A,,Clear,260,2013-11-09 08:15:00
2:35 AM,44.6,30.2,57,29.89,10.0,West,15.0,-,N/A,,Clear,260,2013-11-09 08:35:00
2:55 AM,44.6,30.2,57,29.89,10.0,West,15.0,-,N/A,,Clear,260,2013-11-09 08:55:00
3:15 AM,44.6,30.2,57,29.89,10.0,West,15.0,-,N/A,,Clear,270,2013-11-09 09:15:00
3:35 AM,44.6,30.2,57,29.90,10.0,West,17.3,23.0,N/A,,Clear,270,2013-11-09 09:35:00
3:55 AM,44.6,30.2,57,29.91,10.0,West,17.3,-,N/A,,Clear,270,2013-11-09 09:55:00
4:15 AM,44.6,30.2,57,29.92,10.0,West,16.1,-,N/A,,Clear,280,2013-11-09 10:15:00
4:35 AM,42.8,30.2,61,29.93,10.0,West,17.3,-,N/A,,Clear,270,2013-11-09 10:35:00
4:55 AM,44.6,30.2,57,29.94,10.0,West,18.4,23.0,N/A,,Clear,270,2013-11-09 10:55:00
5:15 AM,44.6,32.0,61,29.95,10.0,WNW,20.7,27.6,N/A,,Clear,290,2013-11-09 11:15:00
5:35 AM,44.6,30.2,57,29.96,10.0,WNW,18.4,-,N/A,,Clear,290,2013-11-09 11:35:00
5:55 AM,42.8,30.2,61,29.97,10.0,WNW,17.3,21.9,N/A,,Clear,290,2013-11-09 11:55:00
6:15 AM,42.8,32.0,66,29.98,10.0,West,15.0,20.7,N/A,,Clear,280,2013-11-09 12:15:00
6:35 AM,42.8,32.0,66,30.00,10.0,WNW,12.7,20.7,N/A,,Clear,290,2013-11-09 12:35:00
6:55 AM,41.0,32.0,70,30.01,10.0,WNW,9.2,-,N/A,,Clear,290,2013-11-09 12:55:00
7:15 AM,39.2,30.2,70,30.03,10.0,West,6.9,-,N/A,,Clear,260,2013-11-09 13:15:00
7:55 AM,39.2,32.0,75,30.05,10.0,WNW,4.6,-,N/A,,Clear,300,2013-11-09 13:55:00
8:15 AM,42.8,33.8,70,30.06,10.0,West,9.2,-,N/A,,Clear,280,2013-11-09 14:15:00
8:35 AM,42.8,33.8,70,30.07,10.0,WNW,12.7,-,N/A,,Clear,290,2013-11-09 14:35:00
8:55 AM,44.6,33.8,66,30.09,10.0,West,12.7,-,N/A,,Clear,280,2013-11-09 14:55:00
9:15 AM,44.6,33.8,66,30.09,10.0,West,13.8,19.6,N/A,,Clear,280,2013-11-09 15:15:00
9:35 AM,46.4,33.8,62,30.10,10.0,WNW,12.7,-,N/A,,Clear,290,2013-11-09 15:35:00
9:55 AM,46.4,33.8,62,30.10,10.0,WNW,20.7,-,N/A,,Clear,300,2013-11-09 15:55:00
10:15 AM,46.4,33.8,62,30.11,10.0,WNW,19.6,25.3,N/A,,Clear,300,2013-11-09 16:15:00
10:35 AM,46.4,33.8,62,30.12,10.0,WNW,13.8,-,N/A,,Clear,300,2013-11-09 16:35:00
10:55 AM,48.2,33.8,58,30.13,10.0,NW,18.4,23.0,N/A,,Clear,320,2013-11-09 16:55:00
11:15 AM,48.2,35.6,62,30.13,10.0,NW,18.4,21.9,N/A,,Clear,310,2013-11-09 17:15:00
11:35 AM,50.0,35.6,58,30.13,10.0,WNW,16.1,-,N/A,,Clear,300,2013-11-09 17:35:00
11:55 AM,50.0,35.6,58,30.14,10.0,NW,16.1,20.7,N/A,,Clear,320,2013-11-09 17:55:00
12:15 PM,50.0,35.6,58,30.14,10.0,WNW,16.1,23.0,N/A,,Clear,290,2013-11-09 18:15:00
12:35 PM,51.8,35.6,54,30.14,10.0,NW,17.3,21.9,N/A,,Clear,310,2013-11-09 18:35:00
12:55 PM,51.8,35.6,54,30.14,10.0,WNW,16.1,24.2,N/A,,Clear,300,2013-11-09 18:55:00
1:15 PM,51.8,35.6,54,30.14,10.0,WNW,19.6,24.2,N/A,,Partly Cloudy,290,2013-11-09 19:15:00
1:35 PM,51.8,33.8,50,30.14,10.0,WNW,20.7,26.5,N/A,,Clear,290,2013-11-09 19:35:00
1:55 PM,51.8,33.8,50,30.14,10.0,WNW,18.4,23.0,N/A,,Clear,300,2013-11-09 19:55:00
2:15 PM,51.8,33.8,50,30.15,10.0,NW,18.4,27.6,N/A,,Clear,310,2013-11-09 20:15:00
2:35 PM,51.8,32.0,47,30.15,10.0,WNW,18.4,23.0,N/A,,Clear,300,2013-11-09 20:35:00
2:55 PM,51.8,32.0,47,30.16,10.0,WNW,18.4,-,N/A,,Clear,300,2013-11-09 20:55:00
3:15 PM,51.8,32.0,47,30.17,10.0,West,16.1,-,N/A,,Clear,280,2013-11-09 21:15:00
3:35 PM,51.8,30.2,44,30.17,10.0,WNW,17.3,-,N/A,,Clear,300,2013-11-09 21:35:00
3:55 PM,51.8,30.2,44,30.18,10.0,WNW,13.8,21.9,N/A,,Clear,300,2013-11-09 21:55:00
4:15 PM,50.0,30.2,47,30.18,10.0,WNW,15.0,20.7,N/A,,Clear,300,2013-11-09 22:15:00
4:35 PM,48.2,30.2,50,30.19,10.0,WNW,12.7,-,N/A,,Clear,290,2013-11-09 22:35:00
4:55 PM,48.2,32.0,54,30.20,10.0,West,8.1,-,N/A,,Clear,280,2013-11-09 22:55:00
5:15 PM,46.4,30.2,53,30.21,10.0,WNW,6.9,-,N/A,,Clear,300,2013-11-09 23:15:00
5:35 PM,42.8,30.2,61,30.21,10.0,WNW,8.1,-,N/A,,Clear,300,2013-11-09 23:35:00
5:55 PM,41.0,30.2,65,30.22,10.0,NW,9.2,-,N/A,,Clear,310,2013-11-09 23:55:00
6:15 PM,39.2,30.2,70,30.24,10.0,NW,9.2,-,N/A,,Clear,320,2013-11-10 00:15:00
6:35 PM,41.0,30.2,65,30.25,10.0,NW,9.2,-,N/A,,Clear,320,2013-11-10 00:35:00
6:55 PM,39.2,28.4,65,30.26,10.0,NW,8.1,-,N/A,,Clear,320,2013-11-10 00:55:00
7:15 PM,37.4,28.4,70,30.27,10.0,NW,8.1,-,N/A,,Clear,320,2013-11-10 01:15:00
7:35 PM,37.4,28.4,70,30.28,10.0,NNW,6.9,-,N/A,,Clear,330,2013-11-10 01:35:00
7:55 PM,39.2,28.4,65,30.29,10.0,WNW,5.8,-,N/A,,Clear,300,2013-11-10 01:55:00
8:15 PM,35.6,26.6,70,30.30,10.0,WNW,10.4,-,N/A,,Clear,300,2013-11-10 02:15:00
8:35 PM,35.6,26.6,70,30.31,10.0,WNW,9.2,-,N/A,,Clear,300,2013-11-10 02:35:00
8:55 PM,35.6,26.6,70,30.31,10.0,WNW,8.1,-,N/A,,Clear,290,2013-11-10 02:55:00
9:15 PM,33.8,24.8,70,30.32,10.0,NW,10.4,-,N/A,,Clear,310,2013-11-10 03:15:00
9:35 PM,32.0,26.6,80,30.33,10.0,NW,8.1,-,N/A,,Clear,310,2013-11-10 03:35:00
9:55 PM,30.2,26.6,86,30.34,10.0,WNW,8.1,-,N/A,,Clear,290,2013-11-10 03:55:00
10:15 PM,32.0,24.8,75,30.35,10.0,WNW,8.1,-,N/A,,Clear,300,2013-11-10 04:15:00
10:35 PM,30.2,24.8,80,30.35,10.0,WNW,9.2,-,N/A,,Clear,300,2013-11-10 04:35:00
10:55 PM,30.2,24.8,80,30.35,10.0,WNW,9.2,-,N/A,,Clear,300,2013-11-10 04:55:00
11:15 PM,30.2,24.8,80,30.36,10.0,NW,9.2,-,N/A,,Clear,310,2013-11-10 05:15:00
11:35 PM,28.4,23.0,80,30.36,10.0,NNW,9.2,-,N/A,,Clear,330,2013-11-10 05:35:00
11:55 PM,30.2,24.8,80,30.36,10.0,NW,5.8,-,N/A,,Clear,310,2013-11-10 05:55:00